Погода в Яшкуле

Хотите узнать прогноз погоды в Яшкуле? Тогда Вам сюда: Погода в Яшкуле

Поиск расширенной информации на нашем сайте:

Полезная информация:

Новости сайта



02.01.2020
Опубликован Долгосрочный прогноз погоды по городам России и ближнего зарубежья на январь 2020 года.
Карты: Прогноз на январь и февраль 2020 года, Сравнение прогнозируемой аномалии приземной температуры воздуха на январь 2020 года по разным моделям.




Погода в Яшкуле - сегодня

Время (UTC), дата Ветер
(°,м/с) 
Видим.   Явления Облачность Т
(°С)
Тd
(°С)
f(%) Тe
(°С)
Pmin
(гПа)
dP
(гПа)
Po
(мм)
O2
(г/м3)
Тmin Tmax R s Состояние
почвы
03 04.08.20 320 (СЗ) 20000 м    ясно 
+17.3 +10 62 +19  1014.5  0.8  761  287  +15.2        сухая 
06 04.08.20 350 (С) 20000 м    ясно 
+26.1 +8.4 33 +26  1014.3  -0.2  761  279           
09 04.08.20 360 (С) 20000 м    8/8 1000 м 
[Cu med, cong]
+28 +4.7 23 +28  1013.4  -1  761  277           
12 04.08.20 350 (С) 5{12}  20000 м    ясно 
+29.9 +2.1 17 +30  1011.5  -1.8  759  275           
15 04.08.20 350 (С) 6{11}  20000 м    ясно 
+28.9 +2.2 18 +29  1010.8  -0.8  759  276    +30.4       
18 04.08.20 340 (С) 3{11}  20000 м    ясно 
+23.1 +3.3 27 +23  1011.1  0.3  759  281           
21 04.08.20 050 (СВ) 20000 м    ясно 
+18.3 +11.3 64 +22  1011.4  0.3  759  285           
00 05.08.20 290 (З) 20000 м    6/0 средняя 
[Ac trans]
+16.5 +10.8 69 +19  1010.6  -0.8  759  286           
03 05.08.20 290 (З) 20000 м    ясно 
+17.9 +9.9 59 +19  1009.8  -0.8  758  285  +16        сухая 
06 05.08.20 330 (СЗ) 7-11{12}  20000 м    6/0 средняя 
[Ac trans]
+23 +11.6 49 +26  1009.2  -0.6  758  279           
09 05.08.20 330 (СЗ) 7-11{12}  20000 м    8/5 600 м кучево-дожд., средняя 
[Cb cap|Ac trans]
+26.4 +12.7 43 +31  1008.1  -1.1  757  276           
12 05.08.20 030 (СВ) 6{13}  20000 м    8/8 600 м кучево-дожд. 
[Cb cap]
+29 +12.4 36 +33  1007.3  -0.8  756  273           
15 05.08.20 010 (С) 6{13}  20000 м    6/6 600 м кучево-дожд. 
[Cb cap]
+29.4 +10.1 30 +31  1007.7  0.4  756  273    +30.2       
18 05.08.20 070 (В) 3{10}  20000 м    ясно 
+24.3 +10.6 42 +26  1010  2.3  758  279           
21 05.08.20 300 (СЗ) 20000 м    ясно 
+19.4 +9.8 54 +21  1010.3  0.3  758  284           
00 06.08.20 340 (С) 20000 м    ясно 
+17.9 +10.1 60 +19  1011.7  1.5  759  285           
03 06.08.20 290 (З) 20000 м    6/0 средняя 
[Ac trans]
+20.9 +10.7 52 +23  1011.3  -0.5  759  282  +17.3         
06 06.08.20 270 (З) 20000 м    ясно 
+25.9 +13.5 46 +32  1011.7  0.4  759  277           
09 06.08.20 060 (СВ) 20000 м    ясно 
+30.6 +11.5 31 +34  1011.6  0.1  759  273           
12 06.08.20 040 (СВ) 20000 м    6/6 600 м 
[Cu hum]
+33.9 +10.1 23 +35  1011.2  -0.4  759  270           
15 06.08.20 030 (СВ) 20000 м    ясно 
+33.8 +8.6 21 +34  1011  -0.2  759  271    +34.3       
18 06.08.20 270 (З) 20000 м    ясно 
+28.5 +9 29 +29  1011.7  0.7  759  276           
21 06.08.20 270 (З) 20000 м    ясно 
+25.5 +9.4 36 +26  1011.2  -0.5  759  278           
00 07.08.20 320 (СЗ) 20000 м    ясно кучево-дожд., средняя, верхняя 
[Cb cap|Ac inh|Cs]
+23.5 +11.9 48 +27  1011.5    751  276           
03 07.08.20 320 (СЗ) 20000 м    1/0 средняя 
[Ac und]
+22.7 +12.7 53 +27  1012.1  0.6  760  280  +22        сухая 
Время (UTC), дата Ветер
(°,м/с) 
Видим.   Явления Облачность Т
(°С)
Тd
(°С)
f(%) Тe
(°С)
Pmin
(гПа)
dP
(гПа)
Po
(мм)
O2
(г/м3)
Тmin Tmax R s Состояние
почвы

Для получения пояснительной информации подведите курсор к названию столбца.

ПОГОДА в Яшкуле - архив

Всё, что Вы хотите узнать о погоде в Яшкуле - удобно и подробно!

Выберите нужную дату (начиная с 1 января 2019* года) и нажмите кнопку "Найти".
Будут отображены архивные сводки погоды по пункту Яшкуль, начиная с указанной даты.


Отображать данные в формате CSV (для использования в таблицах Excel)


Внимание! Наш архив погоды предназначен исключительно для личного некоммерческого использования в познавательных целях. Если Вам необходимы официальные справки о состоянии погоды (для производственных, юридических, коммерческих и т.п. целей), обращайтесь в органы Росгидромета.

*Примечание: данная дата относится к архиву по метеостанциям СССР (Россия, СНГ, Балтия).
Архив по метеостанциям Зарубежной Европы и Азии (кроме Китая) хранится 10 дней, по другим регионам земного шара (Китай, Африка, Америка, Австралия, Океания) - 1 день.

Яшкуль - район местоположения метеостанции


Название, широта, долгота, высота метеостанции:
Яшкуль 46.2°ш. 45.3°д. -7 м над ур. моря [Российская Федерация]

Дополнительная информация

В oтличие oт бoльшинства пoгoдных сайтoв мы публикуем пoдрoбную метеoинфoрмацию в детальнoм прoфессиoнальнoм фoрмате.

Характеристики температуры и влажнoсти вoздуха измеряются на высoте 2 м в тени вдали oт зданий и деревьев.
Скoрoсть ветра измеряется на высoте 10 м (на урoвне рoста челoвека скoрoсть ветра ниже в 1.5-2 раза). Если метеoстанция нахoдится в гoрoде или в лесу, тo скoрoсть ветра занижена на 2-4 м/с пo сравнению с oткрытым местoм. Скoрoсть ветра над акватoриями крупных рек и oзёр, а также на вершинах хoлмoв на 2-5 м/с выше, чем в oбычных услoвиях.
Атмoсфернoе давление в разных тoчках местнoсти мoжет значительнo oтличаться oт давления на метеoстанции, в зависимoсти oт услoвий рельефа (при пoдъёме на 10 м давление пoнижается примернo на 1 мм рт.ст.).